Temperature
25 24 23 24 25 25 24 24 24 24 25 25 24 24 24 24 24 23 23 23 22 22 22 21 20 20 20 19 19 19 18 18 18 17 17 17 17 16 16 16 16 16 16 16
24 24 25 25 25 25 24 23 23 24 25 24 24 24 24 24 24 23 23 23 23 22 22 21 20 20 20 19 19 19 18 18 18 17 17 17 17 16 16 16 16 16 16 16
23 24 25 25 24 24 24 23 24 24 24 24 24 23 24 24 24 23 23 23 23 22 22 21 20 20 19 19 19 18 18 18 18 17 17 17 16 16 16 16 16 16 16 16
24 25 25 24 24 24 23 24 24 24 23 23 24 21 23 24 23 23 23 23 23 22 22 21 20 19 19 19 18 18 18 18 17 17 17 17 16 16 16 16 15 15 15 15
24 25 24 24 24 24 24 24 24 24 23 23 23 22 23 24 23 23 23 23 23 22 22 21 20 19 19 18 18 18 18 18 17 17 17 17 16 16 16 16 15 15 15 15
24 25 25 24 25 24 24 24 24 24 23 22 23 23 22 23 23 23 23 23 23 22 22 21 20 19 19 18 18 18 17 17 17 17 17 16 16 16 16 15 15 15 15 15
24 24 25 24 24 24 23 22 21 21 21 22 24 23 23 24 25 24 23 23 23 22 22 21 20 19 19 18 18 17 17 17 17 17 17 16 16 16 16 15 15 15 15 15
23 23 24 24 23 23 23 23 21 20 21 22 23 23 23 25 25 24 23 23 23 22 22 21 20 19 18 18 18 17 17 17 17 17 17 16 16 16 16 15 15 15 15 15
23 23 24 24 24 23 23 22 23 22 22 21 23 23 24 24 24 24 23 23 22 22 21 21 20 19 19 18 18 17 17 17 17 17 16 16 16 16 16 15 15 15 15 14
23 22 23 24 24 23 23 23 22 21 20 20 22 23 22 22 22 23 23 22 22 22 21 20 20 19 19 18 18 17 17 17 17 16 16 16 16 16 15 15 15 15 15 15
23 22 22 23 22 22 23 23 22 22 21 20 20 21 23 23 22 22 22 22 22 21 20 20 19 19 18 18 17 17 17 17 16 16 16 16 16 16 15 15 15 15 15 14
22 22 21 22 23 24 23 23 22 20 20 21 20 21 24 23 23 23 22 22 21 21 20 19 19 18 18 18 17 17 16 16 16 16 16 15 15 15 15 15 15 14 14 14
21 21 20 21 22 22 22 22 22 22 21 20 20 21 24 23 22 22 22 21 21 20 20 19 18 18 18 17 17 16 16 16 16 16 15 15 15 15 15 14 14 14 14 14
20 20 20 20 21 21 21 21 22 21 20 20 20 21 22 22 22 22 21 21 21 20 19 18 18 17 17 17 16 16 16 15 15 15 15 15 15 14 14 14 14 14 14 14
21 20 21 21 22 22 21 21 21 21 21 20 21 21 21 22 21 22 21 21 20 19 19 18 18 17 17 16 16 16 15 15 15 15 15 14 14 14 14 14 14 13 13 13
21 20 20 20 21 21 21 21 21 21 21 21 21 21 22 21 21 21 20 20 19 19 18 18 17 17 17 16 16 15 15 15 15 14 14 14 14 14 14 13 13 13 13 13
20 20 19 19 20 20 20 21 21 21 21 21 20 20 21 20 20 19 19 19 18 18 18 17 17 17 16 16 15 15 15 14 14 14 14 13 13 13 13 13 13 13 12 12
19 19 19 19 19 18 20 22 21 21 21 20 20 20 19 19 19 19 18 18 17 17 17 17 17 16 16 16 15 15 14 14 14 14 13 13 13 13 13 12 12 12 12 12
20 19 18 18 18 18 20 20 20 19 19 19 19 19 18 18 18 18 17 17 16 16 16 16 16 16 16 15 15 15 14 14 13 13 13 13 13 12 12 12 12 12 11 11
20 19 18 17 17 17 18 19 19 19 17 18 18 18 17 17 16 16 16 15 15 15 15 15 15 15 15 15 15 14 14 13 13 13 12 12 12 12 12 12 11 11 11 11
18 18 17 17 17 17 18 18 18 17 16 17 17 17 16 16 15 15 15 14 14 14 14 14 14 14 14 14 14 14 13 13 13 12 12 12 12 11 11 11 11 11 11 10
18 17 17 17 16 16 17 17 16 16 16 16 16 15 15 15 14 14 14 14 13 13 13 13 13 13 13 13 13 13 13 13 12 12 11 11 11 11 11 11 11 10 10 10
18 17 17 16 16 16 16 16 16 16 15 15 15 14 14 14 13 13 13 13 13 13 12 12 12 12 12 12 13 13 12 12 12 11 11 11 11 11 11 10 10 10 10 10
17 18 17 16 16 16 16 15 15 15 14 14 14 14 13 13 13 12 12 12 12 12 12 12 12 12 12 12 12 12 12 12 11 11 11 10 10 10 10 10 10 10 10 9
16 16 16 16 16 16 15 15 14 14 13 13 13 13 13 12 12 12 11 11 11 11 11 11 11 11 11 11 11 11 11 11 11 11 10 10 9 9 9 9 9 9 9 9
16 15 15 15 15 15 14 14 13 13 13 12 12 12 12 12 11 11 11 11 11 10 10 10 10 10 10 10 10 10 10 10 10 10 10 9 9 9 9 9 9 8 8 9
Wind_Speed
7 6 6 6 5 5 4 4 4 4 3 4 6 6 6 7 6 6 6 6 7 7 8 8 7 6 5 5 5 5 5 4 4 3 2 3 2 2 2 2 3 3 4 5
5 5 5 4 4 3 5 6 5 5 2 4 6 8 6 8 7 5 5 6 7 8 8 8 7 6 4 5 4 5 5 5 5 3 2 2 2 1 2 2 2 2 3 4
5 3 3 4 5 5 7 6 6 5 5 8 7 7 6 7 7 6 6 6 6 7 8 9 8 7 5 4 4 4 5 5 5 5 2 2 2 2 2 2 1 1 2 3
5 5 4 5 6 7 6 4 6 7 7 5 6 5 4 5 7 8 7 7 6 6 6 7 8 8 7 5 4 4 4 5 5 5 4 3 3 2 2 2 1 1 2 3
5 4 5 7 6 6 5 5 8 9 8 8 8 6 4 6 6 7 7 7 6 6 7 8 8 8 7 6 4 4 5 5 5 4 4 3 3 2 2 2 2 1 1 2
7 5 5 5 4 4 5 7 10 10 8 8 9 7 3 3 4 5 6 7 7 7 7 7 8 7 7 6 5 4 5 5 5 5 5 5 4 3 2 2 3 2 1 1
8 7 6 4 5 5 6 6 4 5 6 5 4 5 2 3 3 3 4 4 6 7 8 7 8 8 7 7 6 5 5 5 4 5 5 5 4 3 3 2 3 2 1 1
7 6 6 5 5 5 6 7 5 4 3 3 3 3 3 5 4 4 4 3 5 6 6 7 8 8 8 8 7 6 6 5 4 4 4 4 4 3 2 3 3 3 2 2
5 2 3 4 4 6 6 6 6 7 8 6 4 3 3 5 5 4 3 3 4 5 5 6 8 8 7 8 7 7 6 5 4 4 4 3 3 3 3 3 3 3 3 2
6 6 4 3 5 7 8 7 4 4 5 5 5 4 2 4 3 2 3 3 3 3 5 5 6 6 7 7 6 7 6 6 4 3 3 3 3 3 3 3 2 3 4 4
7 7 5 5 6 6 7 7 6 5 5 4 4 1 3 4 2 2 1 2 3 2 3 5 5 5 5 5 5 5 5 5 4 4 3 3 3 2 2 3 3 3 3 3
5 6 7 7 6 7 8 8 7 5 5 5 5 2 2 3 2 2 1 1 2 3 2 3 4 5 5 5 4 4 4 4 4 3 3 3 3 3 2 2 2 2 2 2
4 5 6 5 5 6 6 6 7 7 6 6 7 3 3 3 2 2 1 1 2 3 3 3 3 4 4 4 4 4 3 3 3 3 3 2 3 3 3 3 2 2 2 2
4 7 9 8 7 5 7 8 9 8 7 8 9 7 4 2 1 1 1 1 2 2 3 2 2 3 4 4 4 3 3 3 2 2 2 2 3 2 2 2 2 2 2 2
5 9 11 12 11 10 10 11 11 11 11 11 10 9 6 4 3 2 0 1 2 2 2 2 2 2 3 4 4 3 3 3 3 3 2 2 2 2 2 2 2 2 2 2
6 9 11 13 13 12 13 12 11 12 12 12 11 9 6 4 4 4 4 3 2 2 1 0 2 2 3 3 3 3 3 3 3 3 3 2 2 2 2 2 2 2 2 2
7 10 11 11 11 12 12 10 10 9 9 8 7 5 5 4 4 4 4 4 3 2 2 2 2 2 2 4 4 4 4 3 3 3 3 2 2 2 2 2 1 2 2 1
10 10 7 9 9 11 5 3 4 4 3 3 4 5 6 6 4 2 3 4 4 4 4 3 2 1 2 2 3 4 3 4 4 3 3 3 3 2 2 2 2 2 2 2
10 8 7 7 9 9 6 4 3 4 3 4 4 6 7 7 4 3 5 6 5 4 4 3 3 3 2 2 3 4 4 4 3 3 3 2 2 2 2 3 2 2 2 2
7 8 7 7 8 7 4 4 5 4 2 5 6 7 7 7 4 4 7 7 6 5 4 3 3 3 2 1 2 3 4 4 3 3 2 2 2 3 3 3 3 2 2 3
6 7 9 9 9 5 3 4 5 3 2 6 7 7 7 5 4 5 6 6 5 4 4 3 3 3 2 2 0 2 3 3 2 2 2 2 2 3 3 3 3 2 3 3
6 5 7 7 8 4 4 3 3 3 4 5 7 7 7 6 6 5 5 5 5 4 3 3 3 2 2 1 1 1 1 1 2 1 1 1 2 2 2 2 2 2 2 3
5 3 3 4 3 2 4 4 4 5 4 5 5 6 6 6 5 5 5 5 5 4 3 3 3 3 2 1 1 1 0 1 2 2 1 1 1 1 2 2 2 2 2 2
5 5 6 6 4 3 2 3 4 4 4 5 5 6 5 5 5 5 4 4 4 4 3 3 3 3 3 2 2 1 1 0 1 2 2 1 1 1 1 1 2 2 2 3
8 7 8 8 6 3 3 3 4 4 4 5 6 6 5 5 5 5 4 4 4 3 3 2 2 2 3 3 1 1 1 1 1 1 2 1 1 1 1 0 1 2 2 3
8 8 7 6 6 5 4 3 4 4 4 5 6 6 6 5 5 5 4 4 3 3 3 2 2 2 2 3 2 2 1 1 2 1 1 1 1 1 1 1 0 0 2 2
Wind_Direction
206 216 231 240 249 262 271 272 265 258 219 247 254 249 213 187 203 209 203 191 187 183 163 153 148 145 146 138 140 140 138 136 121 109 106 106 97 89 88 93 85 61 59 72
221 230 247 268 270 255 262 270 266 266 261 260 267 260 227 188 197 204 210 202 194 175 161 148 151 148 151 143 150 145 138 133 124 125 125 125 130 118 102 94 88 69 65 68
229 247 239 250 257 246 248 257 264 270 270 255 264 264 241 188 186 190 211 214 205 179 171 161 158 149 152 151 151 146 141 135 132 129 119 104 95 84 88 94 98 84 76 76
242 232 243 252 259 262 268 278 281 274 269 267 252 272 238 188 182 187 197 205 201 181 171 159 154 158 159 157 147 149 143 140 136 134 131 136 142 168 165 153 153 176 126 101
244 233 245 258 270 279 287 288 275 272 269 269 258 258 242 181 189 188 187 188 186 174 166 164 159 157 154 151 151 154 147 140 138 143 151 173 168 181 159 142 137 137 136 127
251 246 253 270 280 278 286 277 268 254 259 256 249 246 254 198 192 186 181 177 176 171 160 159 157 149 150 148 150 155 153 146 152 164 171 185 174 171 148 141 145 165 166 174
244 224 224 239 253 236 251 265 272 238 228 246 244 240 230 154 149 152 163 179 175 170 166 160 152 153 154 153 157 159 150 152 161 177 181 177 172 171 170 174 169 170 180 186
251 235 205 215 242 259 250 257 271 292 287 298 271 241 126 112 107 109 130 167 169 163 163 161 154 157 160 159 161 162 167 171 175 187 180 177 171 174 190 196 183 181 192 196
291 262 175 208 242 259 260 253 268 280 285 279 238 186 156 127 133 140 149 155 157 158 151 153 155 159 160 163 164 166 169 170 180 189 181 182 174 184 199 204 200 187 194 203
292 290 252 216 227 238 255 276 273 263 284 277 270 261 185 137 110 129 156 158 140 144 149 150 157 161 164 166 168 169 175 176 177 178 178 182 183 193 200 209 209 201 201 198
286 276 252 228 234 246 238 247 256 262 264 277 287 325 71 110 103 107 100 125 140 128 147 151 154 158 158 160 163 170 175 175 175 182 189 187 187 199 207 210 217 215 216 207
279 278 264 241 235 244 255 257 263 267 273 281 283 283 109 118 94 63 62 82 116 117 121 144 155 158 159 162 165 171 180 181 179 187 193 185 195 196 206 227 227 214 219 227
313 274 271 248 222 220 241 252 267 273 271 269 269 254 123 101 77 46 11 29 108 118 128 132 147 154 155 161 162 168 172 173 173 179 196 198 203 199 204 217 234 237 227 223
283 266 267 271 286 273 259 264 264 264 260 265 267 276 283 297 265 247 220 119 103 120 132 137 157 163 164 167 165 167 164 164 167 175 196 212 216 204 217 216 215 229 228 220
264 269 277 281 285 286 277 267 266 264 266 271 281 287 293 294 302 311 115 107 113 120 125 143 188 191 181 169 167 173 177 182 182 181 205 223 225 203 202 204 209 224 228 234
257 270 280 280 278 274 273 264 259 261 265 268 272 281 308 334 352 358 20 34 56 76 78 111 234 220 192 181 182 179 188 197 190 193 213 221 225 194 196 216 204 210 220 232
258 266 277 277 283 281 266 261 256 256 266 275 279 298 337 346 352 357 4 6 5 2 330 268 249 236 225 201 189 185 193 199 196 199 210 207 214 199 199 227 219 214 205 211
265 267 269 273 273 259 272 315 308 295 304 340 332 350 357 348 336 333 9 356 353 352 335 326 301 266 256 232 189 181 186 198 198 200 206 205 202 204 204 208 213 224 232 206
251 258 262 265 269 267 272 306 317 291 300 357 352 357 354 340 332 8 17 0 345 341 337 340 329 305 268 232 191 183 191 195 193 196 203 204 203 203 206 210 215 228 227 217
242 242 250 259 264 268 303 355 334 303 271 24 5 351 338 336 325 333 355 353 348 351 355 347 328 313 302 275 189 187 189 188 188 193 202 205 205 210 213 211 216 226 215 214
232 239 244 255 259 268 358 352 328 289 356 11 358 349 345 340 334 332 344 343 348 2 358 351 341 330 317 326 238 195 191 192 184 187 202 201 204 213 217 215 212 213 214 209
272 258 255 259 257 260 24 1 354 -0 6 359 358 349 345 346 350 358 356 351 353 357 358 358 352 340 340 343 315 230 214 174 142 156 185 202 214 222 222 204 219 219 213 206
269 279 288 279 273 335 352 0 358 352 349 353 354 346 342 342 343 346 350 347 348 347 350 359 354 344 338 351 347 295 289 110 134 147 189 209 216 212 198 196 200 210 217 216
286 304 284 277 273 291 296 315 337 340 348 347 345 345 343 337 339 340 336 331 334 341 348 350 349 350 343 351 354 338 348 341 177 168 183 196 210 218 196 191 195 201 220 223
295 296 285 280 282 303 312 324 335 342 340 336 335 336 339 336 332 332 326 326 325 328 333 335 335 333 329 333 329 321 339 317 268 196 183 195 200 198 163 142 222 214 221 218
275 277 277 285 307 299 298 313 329 327 330 331 331 335 338 334 326 324 323 321 320 325 325 332 337 329 325 336 336 324 312 283 266 220 190 176 171 176 166 166 360 347 200 179
Height
1494 1496 1498 1495 1493 1494 1495 1498 1501 1498 1493 1496 1498 1498 1496 1498 1500 1501 1503 1506 1508 1510 1512 1514 1516 1519 1521 1522 1524 1525 1527 1528 1529 1530 1531 1532 1533 1534 1535 1536 1536 1537 1537 1538
1494 1496 1493 1491 1491 1493 1496 1500 1501 1497 1493 1496 1497 1495 1492 1494 1496 1499 1501 1503 1504 1507 1510 1512 1515 1517 1519 1521 1523 1524 1525 1527 1528 1529 1530 1531 1532 1533 1534 1535 1535 1536 1536 1537
1496 1494 1491 1492 1493 1495 1496 1499 1499 1498 1494 1493 1497 1499 1492 1490 1493 1496 1499 1501 1502 1504 1507 1510 1512 1515 1517 1519 1521 1522 1524 1525 1527 1528 1529 1530 1531 1532 1533 1534 1534 1535 1536 1536
1492 1490 1491 1493 1494 1494 1499 1493 1493 1495 1499 1501 1497 1509 1494 1489 1490 1492 1495 1497 1499 1502 1504 1507 1510 1512 1515 1517 1519 1520 1522 1524 1525 1526 1528 1529 1530 1531 1531 1532 1533 1534 1534 1534
1492 1489 1492 1494 1493 1492 1494 1491 1492 1493 1496 1500 1495 1503 1495 1487 1490 1490 1491 1494 1497 1499 1502 1505 1507 1510 1512 1515 1517 1519 1520 1522 1523 1524 1526 1527 1528 1529 1530 1531 1532 1532 1533 1533
1488 1488 1489 1491 1490 1491 1492 1492 1492 1491 1496 1508 1495 1499 1499 1488 1486 1487 1488 1491 1494 1497 1500 1502 1505 1508 1510 1512 1515 1517 1518 1520 1521 1522 1524 1526 1527 1528 1529 1529 1530 1530 1531 1531
1490 1487 1487 1489 1492 1492 1494 1501 1510 1509 1510 1504 1486 1492 1492 1481 1480 1482 1486 1489 1491 1494 1497 1500 1503 1505 1508 1510 1512 1514 1516 1517 1519 1520 1522 1523 1525 1525 1526 1527 1528 1528 1529 1529
1495 1495 1487 1488 1491 1495 1493 1498 1513 1519 1512 1502 1490 1492 1485 1477 1479 1482 1485 1488 1490 1492 1495 1497 1500 1503 1505 1507 1510 1512 1513 1515 1517 1518 1520 1521 1522 1523 1524 1525 1525 1526 1526 1527
1494 1494 1485 1486 1488 1491 1494 1495 1493 1503 1502 1504 1494 1485 1481 1477 1479 1482 1484 1487 1489 1491 1493 1495 1498 1501 1503 1505 1507 1509 1511 1513 1514 1516 1517 1518 1519 1520 1521 1522 1523 1523 1524 1525
1490 1496 1488 1486 1488 1489 1490 1490 1495 1503 1510 1512 1498 1490 1489 1484 1483 1483 1484 1486 1488 1490 1492 1494 1496 1499 1501 1503 1505 1507 1509 1510 1512 1513 1514 1516 1517 1517 1518 1519 1520 1520 1521 1522
1490 1495 1492 1489 1490 1491 1490 1492 1492 1495 1498 1508 1510 1500 1479 1481 1481 1483 1484 1486 1487 1490 1491 1493 1495 1497 1499 1501 1502 1504 1506 1508 1509 1510 1512 1513 1514 1514 1515 1516 1517 1517 1518 1519
1490 1493 1495 1489 1483 1483 1485 1488 1491 1503 1502 1497 1503 1500 1477 1479 1480 1482 1483 1485 1487 1489 1491 1492 1494 1495 1497 1499 1500 1502 1504 1505 1506 1508 1509 1510 1511 1511 1512 1513 1514 1514 1515 1515
1493 1495 1500 1497 1492 1486 1486 1486 1488 1491 1496 1500 1504 1498 1477 1479 1481 1482 1484 1485 1486 1487 1489 1491 1492 1494 1495 1496 1498 1500 1501 1502 1503 1505 1506 1506 1507 1508 1508 1509 1510 1511 1511 1512
1495 1495 1498 1503 1495 1488 1489 1488 1486 1490 1498 1498 1494 1489 1481 1480 1481 1482 1483 1484 1485 1487 1488 1490 1491 1492 1493 1495 1496 1497 1498 1499 1500 1501 1502 1503 1504 1505 1505 1506 1506 1507 1508 1508
1493 1495 1490 1487 1483 1483 1484 1486 1486 1488 1488 1492 1488 1485 1482 1479 1480 1480 1481 1483 1484 1486 1487 1489 1490 1491 1492 1493 1494 1495 1496 1497 1497 1498 1499 1500 1501 1501 1502 1502 1503 1503 1504 1505
1491 1493 1491 1489 1483 1482 1483 1481 1482 1483 1482 1483 1482 1482 1478 1479 1479 1479 1481 1482 1484 1485 1486 1488 1488 1489 1489 1490 1491 1492 1493 1494 1495 1495 1496 1497 1497 1498 1498 1499 1500 1500 1500 1501
1490 1491 1494 1492 1484 1484 1485 1477 1477 1478 1476 1478 1482 1482 1478 1479 1480 1481 1482 1483 1484 1484 1485 1485 1486 1486 1487 1487 1488 1489 1490 1491 1492 1492 1493 1493 1494 1494 1495 1496 1496 1497 1497 1498
1489 1490 1492 1491 1490 1497 1482 1471 1472 1474 1475 1476 1478 1479 1480 1480 1481 1481 1481 1482 1482 1483 1483 1483 1483 1484 1484 1485 1485 1486 1487 1488 1488 1489 1490 1491 1491 1491 1492 1492 1493 1493 1494 1494
1485 1489 1493 1493 1493 1486 1478 1474 1475 1477 1478 1478 1479 1480 1481 1480 1479 1479 1481 1481 1481 1481 1481 1481 1481 1481 1481 1481 1482 1483 1484 1485 1485 1486 1486 1487 1488 1488 1488 1489 1489 1490 1490 1491
1482 1484 1490 1492 1496 1494 1482 1477 1475 1476 1482 1481 1481 1481 1481 1480 1482 1481 1481 1480 1480 1479 1479 1478 1478 1478 1478 1478 1479 1480 1481 1481 1482 1482 1483 1484 1484 1484 1484 1485 1486 1486 1487 1487
1484 1485 1488 1489 1490 1485 1480 1477 1477 1486 1487 1483 1482 1482 1482 1482 1483 1481 1479 1479 1479 1478 1477 1476 1476 1476 1475 1475 1476 1477 1478 1478 1479 1479 1480 1480 1481 1481 1481 1481 1482 1483 1483 1484
1482 1484 1485 1485 1489 1489 1480 1479 1483 1485 1483 1483 1483 1483 1483 1482 1481 1479 1479 1478 1477 1476 1475 1474 1474 1473 1473 1473 1474 1474 1475 1475 1476 1476 1477 1477 1477 1477 1478 1478 1479 1479 1480 1480
1479 1481 1482 1483 1486 1482 1481 1482 1483 1483 1483 1483 1483 1483 1482 1481 1480 1479 1478 1477 1476 1475 1474 1473 1472 1472 1472 1471 1471 1471 1472 1472 1473 1473 1473 1473 1474 1474 1474 1475 1475 1475 1476 1476
1479 1478 1479 1480 1479 1480 1481 1481 1482 1483 1483 1483 1482 1482 1481 1480 1478 1477 1476 1475 1474 1474 1473 1472 1471 1470 1470 1470 1469 1469 1469 1469 1469 1469 1470 1470 1470 1470 1471 1471 1471 1472 1472 1472
1481 1480 1480 1479 1479 1480 1480 1481 1481 1481 1481 1481 1481 1480 1479 1478 1477 1476 1475 1474 1473 1472 1471 1470 1469 1469 1468 1468 1467 1467 1467 1466 1466 1466 1466 1467 1467 1467 1467 1468 1468 1468 1468 1468
1480 1480 1480 1479 1479 1479 1479 1480 1480 1480 1480 1480 1479 1478 1477 1476 1475 1474 1473 1472 1471 1470 1469 1468 1468 1467 1466 1466 1465 1465 1465 1464 1464 1463 1463 1464 1464 1464 1464 1464 1464 1464 1464 1464